Weather History for Farmington, MO

Change the Weather History Date:

Wednesday, April 3, 2013

  Actual Average Record
Temperature  
Mean Temperature 40 °F -  
Max Temperature 51 °F 62 °F 84 °F (2007)
Min Temperature 28 °F 41 °F 28 °F (2013)
Degree Days  
Heating Degree Days 26    
Moisture  
Dew Point 21 °F    
Average Humidity 49    
Maximum Humidity 80    
Minimum Humidity 30    
Precipitation  
Precipitation 0.00 in - - ()
Sea Level Pressure  
Sea Level Pressure 30.30 in    
Wind  
Wind Speed 5 mph (NE)    
Max Wind Speed 17 mph    
Max Gust Speed 21 mph    
Visibility 10 miles    
Events      
Averages and records for this station are not official NWS values.
T = Trace of Precipitation, MM = Missing Value Source: NWS Daily Summary

Daily Weather History Graph

Daily Weather History Graph

Search for Another Location

Airport:

Trip Planner

Search our weather history database for the weather conditions in past years. The results will help you decide how hot, cold, wet, or windy it might be!

Date:

Astronomy

Apr. 03, 2013 Rise Set
Actual Time 6:43 AM CDT 7:26 PM CDT
Civil Twilight 6:17 AM CDT 7:53 PM CDT
Nautical Twilight 5:45 AM CDT 8:24 PM CDT
Astronomical Twilight 5:13 AM CDT 8:56 PM CDT
Moon 2:17 AM CDT (4/3) 12:45 PM CDT (4/3)
Length of Visible Light 13h 36m
Length of Day
12h 43m
Last Quarter, 44% of the Moon is Illuminated
Apr 3
Last Quarter
Apr 10
New
Apr 18
First Quarter
Apr 25
Full
May 2
Last Quarter

Hourly Weather History & Observations

Time (CDT) Temp. Windchill Dew Point Humidity Pressure Visibility Wind Dir Wind Speed Gust Speed Precip Events Conditions
12:15 AM 35.6 °F 32.8 °F 19.4 °F 52% 30.29 in 10.0 mi NE 3.5 mph - N/A   Clear
12:35 AM 33.8 °F - 19.4 °F 56% 30.30 in 10.0 mi Calm Calm - N/A   Clear
12:55 AM 33.8 °F - 21.2 °F 60% 30.30 in 10.0 mi Calm Calm - N/A   Clear
1:15 AM 33.8 °F - 24.8 °F 70% 30.31 in 10.0 mi Calm Calm - N/A   Clear
1:35 AM 33.8 °F - 23.0 °F 65% 30.29 in 10.0 mi Calm Calm - N/A   Clear
1:55 AM 32.0 °F - 21.2 °F 64% 30.29 in 10.0 mi Calm Calm - N/A   Clear
2:15 AM 32.0 °F - 21.2 °F 64% 30.28 in 10.0 mi Calm Calm - N/A   Clear
2:35 AM 30.2 °F - 24.8 °F 80% 30.29 in 10.0 mi Calm Calm - N/A   Clear
2:55 AM 30.2 °F - 21.2 °F 69% 30.29 in 10.0 mi Calm Calm - N/A   Clear
3:15 AM 30.2 °F - 23.0 °F 75% 30.29 in 10.0 mi Calm Calm - N/A   Clear
3:35 AM 28.4 °F - 23.0 °F 80% 30.29 in 10.0 mi Calm Calm - N/A   Clear
3:55 AM 30.2 °F - 24.8 °F 80% 30.29 in 10.0 mi Calm Calm - N/A   Clear
4:15 AM 28.4 °F 24.6 °F 21.2 °F 74% 30.27 in 10.0 mi North 3.5 mph - N/A   Clear
4:35 AM 30.2 °F 25.4 °F 21.2 °F 69% 30.26 in 10.0 mi North 4.6 mph - N/A   Clear
4:55 AM 28.4 °F - 19.4 °F 69% 30.27 in 10.0 mi Calm Calm - N/A   Clear
5:15 AM 30.2 °F 26.7 °F 19.4 °F 64% 30.27 in 10.0 mi North 3.5 mph - N/A   Clear
5:35 AM 28.4 °F 24.6 °F 19.4 °F 69% 30.29 in 10.0 mi NNW 3.5 mph - N/A   Clear
5:55 AM 28.4 °F 23.3 °F 21.2 °F 74% 30.30 in 10.0 mi North 4.6 mph - N/A   Clear
6:15 AM 32.0 °F 26.4 °F 19.4 °F 60% 30.31 in 10.0 mi North 5.8 mph - N/A   Clear
6:35 AM 32.0 °F 27.5 °F 19.4 °F 60% 30.33 in 10.0 mi North 4.6 mph - N/A   Clear
6:55 AM 32.0 °F 28.7 °F 17.6 °F 55% 30.34 in 10.0 mi North 3.5 mph - N/A   Clear
7:15 AM 30.2 °F - 19.4 °F 64% 30.36 in 10.0 mi Calm Calm - N/A   Clear
7:35 AM 28.4 °F - 21.2 °F 74% 30.37 in 10.0 mi Calm Calm - N/A   Clear
7:55 AM 30.2 °F - 24.8 °F 80% 30.37 in 10.0 mi Calm Calm - N/A   Clear
8:15 AM 33.8 °F 30.8 °F 21.2 °F 60% 30.37 in 10.0 mi NNE 3.5 mph - N/A   Clear
8:35 AM 35.6 °F 31.7 °F 19.4 °F 52% 30.38 in 10.0 mi NNE 4.6 mph - N/A   Clear
8:55 AM 35.6 °F 29.2 °F 21.2 °F 56% 30.36 in 10.0 mi NE 8.1 mph - N/A   Clear
9:15 AM 37.4 °F 32.8 °F 23.0 °F 56% 30.36 in 10.0 mi NE 5.8 mph - N/A   Clear
9:35 AM 39.2 °F 34.2 °F 21.2 °F 49% 30.36 in 10.0 mi ENE 6.9 mph - N/A   Clear
9:55 AM 41.0 °F 37.1 °F 19.4 °F 42% 30.36 in 10.0 mi East 5.8 mph - N/A   Clear
10:15 AM 42.8 °F 38.6 °F 19.4 °F 39% 30.36 in 10.0 mi ENE 6.9 mph - N/A   Clear
10:35 AM 44.6 °F 38.8 °F 19.4 °F 37% 30.37 in 10.0 mi ENE 11.5 mph - N/A   Clear
10:55 AM 44.6 °F 38.4 °F 19.4 °F 37% 30.37 in 10.0 mi East 12.7 mph - N/A   Clear
11:15 AM 46.4 °F 40.7 °F 19.4 °F 34% 30.37 in 10.0 mi ENE 12.7 mph 16.1 mph N/A   Clear
11:35 AM 46.4 °F 41.5 °F 19.4 °F 34% 30.36 in 10.0 mi ENE 10.4 mph - N/A   Clear
11:55 AM 46.4 °F 40.1 °F 19.4 °F 34% 30.34 in 10.0 mi ENE 15.0 mph 20.7 mph N/A   Clear
12:15 PM 48.2 °F - 19.4 °F 32% 30.33 in 10.0 mi NE 10.4 mph - N/A   Clear
12:35 PM 48.2 °F - 19.4 °F 32% 30.32 in 10.0 mi NE 17.3 mph - N/A   Clear
12:55 PM 48.2 °F - 19.4 °F 32% 30.31 in 10.0 mi NNE 11.5 mph 16.1 mph N/A   Clear
1:15 PM 48.2 °F - 21.2 °F 34% 30.32 in 10.0 mi NNE 11.5 mph 17.3 mph N/A   Clear
1:35 PM 48.2 °F - 19.4 °F 32% 30.31 in 10.0 mi NNE 11.5 mph 18.4 mph N/A   Clear
1:55 PM 50.0 °F - 21.2 °F 32% 30.31 in 10.0 mi East 10.4 mph 17.3 mph N/A   Clear
2:15 PM 51.8 °F - 21.2 °F 30% 30.30 in 10.0 mi East 13.8 mph - N/A   Clear
2:35 PM 50.0 °F - 21.2 °F 32% 30.30 in 10.0 mi NE 11.5 mph 20.7 mph N/A   Clear
2:55 PM 51.8 °F - 21.2 °F 30% 30.29 in 10.0 mi ENE 12.7 mph 18.4 mph N/A   Clear
3:15 PM 51.8 °F - 21.2 °F 30% 30.28 in 10.0 mi ENE 11.5 mph - N/A   Clear
3:35 PM 51.8 °F - 21.2 °F 30% 30.28 in 10.0 mi East 15.0 mph 19.6 mph N/A   Clear
3:55 PM 51.8 °F - 21.2 °F 30% 30.27 in 10.0 mi ESE 12.7 mph - N/A   Clear
4:15 PM 51.8 °F - 21.2 °F 30% 30.27 in 10.0 mi East 10.4 mph 17.3 mph N/A   Clear
4:35 PM 51.8 °F - 21.2 °F 30% 30.27 in 10.0 mi East 9.2 mph - N/A   Clear
4:55 PM 51.8 °F - 21.2 °F 30% 30.27 in 10.0 mi East 12.7 mph - N/A   Clear
5:15 PM 51.8 °F - 21.2 °F 30% 30.26 in 10.0 mi East 11.5 mph - N/A   Clear
5:35 PM 50.0 °F - 21.2 °F 32% 30.25 in 10.0 mi ENE 10.4 mph - N/A   Clear
5:55 PM 50.0 °F - 21.2 °F 32% 30.25 in 10.0 mi NE 10.4 mph - N/A   Clear
6:15 PM 48.2 °F - 19.4 °F 32% 30.26 in 10.0 mi ENE 11.5 mph - N/A   Clear
6:35 PM 48.2 °F - 21.2 °F 34% 30.25 in 10.0 mi East 11.5 mph - N/A   Clear
6:55 PM 46.4 °F 41.9 °F 21.2 °F 37% 30.25 in 10.0 mi ENE 9.2 mph - N/A   Clear
7:15 PM 46.4 °F 42.9 °F 21.2 °F 37% 30.26 in 10.0 mi ENE 6.9 mph - N/A   Clear
7:35 PM 44.6 °F 40.7 °F 21.2 °F 39% 30.25 in 10.0 mi ENE 6.9 mph - N/A   Clear
7:55 PM 44.6 °F 40.7 °F 23.0 °F 43% 30.25 in 10.0 mi ENE 6.9 mph - N/A   Clear
8:15 PM 44.6 °F 41.4 °F 21.2 °F 39% 30.25 in 10.0 mi ENE 5.8 mph - N/A   Clear
8:35 PM 42.8 °F 39.3 °F 21.2 °F 42% 30.25 in 10.0 mi NE 5.8 mph - N/A   Clear
8:55 PM 42.8 °F 40.1 °F 23.0 °F 46% 30.26 in 10.0 mi NE 4.6 mph - N/A   Clear
9:15 PM 42.8 °F 38.6 °F 23.0 °F 46% 30.26 in 10.0 mi ENE 6.9 mph - N/A   Clear
9:35 PM 42.8 °F 39.3 °F 24.8 °F 49% 30.26 in 10.0 mi ENE 5.8 mph - N/A   Clear
9:55 PM 41.0 °F 38.0 °F 23.0 °F 49% 30.26 in 10.0 mi ENE 4.6 mph - N/A   Clear
10:15 PM 41.0 °F 37.1 °F 23.0 °F 49% 30.26 in 10.0 mi ENE 5.8 mph - N/A   Clear
10:35 PM 41.0 °F 38.0 °F 24.8 °F 53% 30.25 in 10.0 mi NE 4.6 mph - N/A   Clear
10:55 PM 41.0 °F 39.0 °F 23.0 °F 49% 30.25 in 10.0 mi NE 3.5 mph - N/A   Clear
11:15 PM 41.0 °F 39.0 °F 21.2 °F 45% 30.25 in 10.0 mi NNE 3.5 mph - N/A   Clear
11:35 PM 39.2 °F - 21.2 °F 49% 30.25 in 10.0 mi Calm Calm - N/A   Clear
11:55 PM 39.2 °F 35.9 °F 21.2 °F 49% 30.24 in 10.0 mi NE 4.6 mph - N/A   Clear